GFSMA_sfc_30mbdewp_336.txt.gz
Dewpoint
71 71 71 72 71 71 71 70 71 70 70 70 70 69 69 68 69 71 71 71 71 71 71 71 72 72 72 71 72 72 72 72 72 72 71 71 71 72 71 70 70 71 71
71 71 70 70 70 70 70 70 69 70 69 69 69 69 69 69 68 67 70 71 68 70 70 70 70 71 72 71 70 71 71 71 71 72 71 72 72 72 71 71 71 71 71
70 70 69 69 70 70 70 70 70 70 70 69 69 69 70 69 68 68 67 69 70 68 66 67 68 68 69 70 71 71 71 72 71 71 71 72 72 72 72 71 71 71 72
70 68 67 69 69 70 71 70 69 69 68 67 67 66 68 69 68 68 68 67 70 70 68 68 68 67 67 67 68 71 71 72 72 72 72 72 72 72 72 72 72 72 72
70 69 68 68 69 69 70 70 69 68 67 67 67 68 67 67 69 70 69 67 68 70 70 68 68 67 67 66 68 69 71 72 72 72 72 72 72 72 72 73 72 72 72
69 70 70 69 70 69 69 68 67 68 68 68 69 69 69 68 67 68 69 69 67 68 70 69 69 69 68 68 68 68 70 71 72 71 72 72 72 72 73 72 72 73 73
70 70 70 71 70 69 69 68 66 65 65 69 68 67 67 68 68 67 67 69 70 70 70 70 69 67 66 68 68 68 68 68 71 71 72 73 72 72 72 72 72 73 73
71 70 70 70 70 69 69 69 69 68 68 69 67 66 64 64 65 68 68 68 68 69 70 70 70 68 67 66 67 69 68 68 68 70 70 72 72 72 72 73 73 73 72
70 70 71 70 70 70 69 69 69 68 67 68 68 66 63 60 64 65 67 69 69 69 69 70 70 69 68 68 68 67 68 68 69 68 70 71 72 72 72 72 72 72 72
70 70 70 70 70 69 69 69 70 70 69 67 68 69 67 65 64 64 66 67 69 69 69 69 70 69 69 69 69 69 68 69 69 68 69 71 71 71 71 71 71 72 71
70 70 71 71 70 70 70 69 69 70 70 69 68 68 68 68 67 66 64 65 66 68 69 69 69 70 70 70 69 69 69 69 70 69 69 70 72 71 70 70 70 70 70
69 70 71 71 71 71 70 71 71 70 70 69 69 69 68 67 67 66 65 65 66 67 67 68 69 69 69 69 70 70 69 70 70 70 69 69 71 71 70 69 69 69 69
69 70 71 71 71 71 71 69 69 70 71 70 70 69 69 69 68 67 66 66 66 67 67 69 69 70 69 69 70 70 70 70 70 70 69 69 70 70 71 71 70 69 68
69 70 71 70 69 66 65 64 65 67 69 71 70 70 70 70 70 69 68 67 65 66 66 67 70 70 70 69 69 70 70 70 70 70 69 69 69 70 70 71 71 70 69
70 70 69 67 67 66 67 65 64 64 68 70 71 70 70 70 71 71 70 69 67 64 64 66 67 70 71 70 70 71 70 70 70 70 70 69 69 69 69 70 71 71 70
71 70 68 67 67 67 65 64 64 66 68 70 71 70 71 71 71 71 71 70 69 68 66 67 68 69 71 71 71 72 71 71 70 70 69 69 69 69 69 70 71 71 71
72 70 68 67 67 67 65 64 65 67 69 69 71 71 70 71 71 71 71 70 70 69 67 68 69 70 70 71 71 73 72 71 71 70 70 69 69 69 69 69 69 69 70
71 71 69 68 68 67 64 65 67 69 69 69 70 70 70 71 70 71 71 70 70 70 69 66 69 69 70 71 71 71 72 72 71 71 70 70 69 69 68 68 68 68 68
71 71 70 69 68 66 64 65 67 67 67 66 68 70 70 70 69 70 70 70 70 70 69 68 65 69 70 71 71 71 71 72 72 71 70 69 69 69 69 69 68 68 68
73 72 71 70 69 68 67 66 66 65 67 67 68 69 70 70 70 70 71 71 70 70 69 68 68 68 70 71 71 70 70 71 70 71 71 69 69 68 69 68 68 68 67
74 73 72 71 70 68 67 66 65 64 65 65 66 67 68 69 69 70 71 71 71 70 69 67 67 69 69 69 70 71 70 70 70 70 70 70 69 68 69 68 69 68 67
73 72 71 70 69 66 65 65 65 64 63 63 64 66 64 66 67 68 69 70 72 71 69 67 67 68 69 70 70 70 70 69 68 71 70 69 70 69 69 69 69 69 68
70 69 68 67 65 64 64 63 63 64 65 66 65 61 61 63 66 66 67 67 68 68 70 70 68 67 67 70 70 70 70 69 69 70 70 68 70 69 70 70 68 68 67
70 70 69 69 69 69 68 68 67 67 65 62 59 61 62 62 63 63 66 67 69 71 70 69 70 70 69 72 71 71 70 70 71 71 71 68 69 69 71 71 70 68 67
67 67 67 66 65 64 63 63 63 61 59 58 60 60 59 57 62 62 64 68 67 64 69 69 69 69 69 70 71 71 70 69 69 69 70 69 69 69 69 70 71 69 68
63 64 64 65 65 65 66 65 62 60 57 56 56 57 56 57 60 62 62 68 63 61 63 63 63 67 69 70 70 71 72 70 70 68 69 69 69 69 68 69 70 71 69

GFSMA_sfc_30mbdewp_339.txt.gz
Dewpoint
72 71 70 70 70 71 69 71 71 70 71 71 71 70 69 69 70 70 70 70 71 70 71 71 71 72 72 72 72 71 72 72 72 72 71 71 71 71 71 71 70 70 71
72 72 70 69 70 70 70 71 71 71 72 71 70 70 70 69 69 69 69 70 68 68 70 70 69 71 71 71 70 71 71 71 71 72 71 71 71 71 71 71 71 71 71
73 72 71 69 68 70 70 70 71 71 71 70 70 71 70 70 69 68 67 69 69 68 65 67 68 68 70 69 71 71 71 71 71 71 72 72 72 72 72 71 71 71 71
73 72 70 68 69 71 71 72 72 71 70 70 68 68 67 67 70 69 68 68 68 67 66 66 68 68 67 67 68 70 70 71 72 72 71 71 72 72 72 72 72 72 72
72 72 71 70 71 69 70 70 71 71 70 70 68 67 69 69 69 69 69 68 68 69 68 67 69 68 67 67 67 68 69 70 72 72 72 72 72 72 72 72 73 72 72
72 72 70 71 71 70 70 70 71 71 70 70 68 70 69 70 70 69 69 70 68 69 70 70 68 68 68 67 69 68 68 70 70 71 72 72 72 72 73 72 73 73 73
72 72 70 71 72 71 70 71 70 70 68 68 66 66 67 69 69 69 68 69 68 69 69 70 70 70 70 69 69 68 69 69 70 70 71 73 72 73 73 73 72 73 73
72 72 71 71 71 71 71 71 70 69 69 70 68 67 64 64 65 67 69 69 68 68 69 69 70 70 69 68 68 68 69 69 69 69 71 72 73 72 72 72 72 73 73
72 72 73 72 72 72 70 71 71 70 68 70 70 68 64 62 65 66 67 68 69 69 70 69 69 70 70 69 69 68 69 70 69 69 69 71 73 72 72 72 72 72 73
72 72 72 72 72 70 70 71 71 71 71 68 69 70 69 67 65 62 66 68 68 69 69 70 70 70 71 70 69 69 68 69 70 69 69 71 72 73 71 72 72 73 73
72 71 72 73 72 71 71 72 72 72 71 69 69 69 69 69 69 68 65 65 67 68 70 70 70 70 72 71 70 70 70 69 70 70 70 70 72 71 71 71 71 71 72
69 71 71 72 73 72 72 72 72 72 72 71 71 70 69 67 68 67 66 67 67 67 68 69 70 69 72 71 71 70 70 70 70 70 70 70 70 71 70 70 69 70 70
68 69 72 73 72 73 73 73 72 72 72 71 70 70 71 69 70 68 68 67 67 66 67 68 69 70 70 70 71 71 71 71 71 70 70 70 70 69 71 71 70 68 68
69 71 72 73 73 73 73 73 71 69 69 68 69 71 70 70 71 70 69 67 65 64 67 67 71 70 71 71 70 70 70 70 70 71 70 70 70 69 69 70 71 70 69
70 72 72 72 72 72 71 69 69 68 67 66 66 69 71 70 71 71 71 70 68 64 63 66 68 71 71 71 71 71 71 71 70 70 70 69 69 69 69 68 70 71 70
72 72 72 72 72 71 71 70 70 69 67 66 67 69 70 70 72 72 71 71 71 69 65 68 68 69 72 71 72 72 72 71 70 70 70 70 69 69 69 68 69 70 71
73 73 73 72 71 71 70 70 69 69 67 69 70 71 70 69 70 72 71 72 71 70 68 68 70 70 71 71 72 72 72 72 71 70 70 69 69 69 69 69 69 69 70
73 73 73 72 72 72 71 70 69 68 69 68 69 69 67 68 69 71 72 71 71 71 69 68 69 69 70 69 72 72 72 72 72 72 70 70 69 69 69 69 69 69 69
74 74 73 73 73 72 72 71 69 68 69 69 68 69 67 68 69 70 70 70 71 71 70 69 68 68 70 70 71 72 72 72 72 72 71 70 69 69 68 68 68 68 68
75 75 75 74 74 73 73 72 70 70 68 68 68 68 67 68 68 69 70 71 71 71 71 71 69 67 68 71 71 70 71 71 71 71 71 70 70 69 68 67 67 68 67
74 75 75 75 75 74 73 72 72 70 68 67 67 67 67 68 69 66 65 68 71 71 69 69 68 66 66 70 69 70 69 70 71 71 70 70 69 69 69 68 68 68 67
75 75 75 75 74 73 70 68 67 67 68 68 67 69 69 65 66 66 66 68 69 71 71 69 66 66 66 66 67 67 69 70 68 71 70 70 71 68 68 68 69 69 67
73 73 73 72 71 71 68 65 65 65 67 67 69 68 64 60 64 66 66 67 67 67 69 70 69 69 67 67 69 68 68 69 68 70 71 67 72 70 70 68 70 68 68
72 72 72 72 71 70 69 68 67 67 67 67 67 65 62 63 62 64 65 66 67 70 71 70 71 70 68 70 70 70 69 69 70 71 72 68 71 69 70 70 69 69 68
64 65 66 66 67 68 68 65 64 67 66 64 62 62 62 61 59 61 63 65 64 69 68 70 71 69 66 66 67 70 69 68 68 69 72 69 68 69 70 70 71 70 67
62 62 61 61 60 60 64 64 63 64 67 65 62 61 61 59 58 58 61 66 64 66 64 66 68 67 67 68 67 70 69 69 69 68 71 70 68 69 65 68 70 71 70

GFSMA_sfc_30mbdewp_342.txt.gz
Dewpoint
67 67 67 67 68 68 66 66 67 69 70 71 71 70 68 68 69 70 69 68 69 70 70 71 71 71 71 72 71 71 71 71 71 71 71 71 71 71 71 70 70 70 69
68 66 66 67 67 67 67 68 71 71 69 71 71 71 71 68 70 70 69 69 68 67 69 69 70 71 71 71 70 71 71 71 71 71 71 71 71 71 71 71 71 71 71
71 70 67 67 67 68 69 68 70 72 69 71 70 71 70 70 70 68 68 68 69 66 68 68 69 69 70 70 71 71 71 71 70 71 72 72 72 71 71 71 71 71 72
72 71 68 67 67 68 68 71 71 70 71 70 69 68 67 67 69 70 69 68 66 66 68 66 66 68 68 68 69 70 70 70 70 71 70 72 71 72 72 72 72 72 72
71 71 70 67 70 68 66 66 67 70 69 67 70 69 67 68 70 69 69 67 68 68 68 67 68 68 68 67 68 69 65 69 71 72 71 71 72 72 72 72 72 72 72
71 71 68 69 69 69 70 67 69 69 70 68 67 66 68 69 68 70 69 69 68 68 69 70 69 69 68 67 68 68 68 64 70 71 71 72 72 72 72 73 73 72 72
71 72 70 69 70 69 69 69 68 69 68 68 67 65 64 64 66 67 67 68 69 67 68 68 70 69 70 70 68 69 69 69 68 70 71 72 73 73 72 72 73 72 72
72 72 71 70 71 68 69 70 68 68 66 68 68 66 63 63 63 64 66 68 67 67 67 68 67 68 67 69 70 70 69 69 69 70 71 71 73 73 72 72 73 73 72
72 72 72 73 71 71 67 70 69 69 67 66 70 69 60 61 62 65 65 65 68 67 67 69 68 69 69 71 70 70 70 69 69 70 70 71 72 73 72 72 73 72 72
71 71 72 72 72 71 69 70 70 71 70 65 65 67 69 68 62 58 62 64 66 66 67 69 68 69 70 71 71 70 69 70 70 70 70 71 72 72 72 72 72 72 72
69 69 70 72 72 71 69 71 71 69 69 69 67 66 67 67 68 67 61 61 63 64 64 66 68 70 69 70 71 70 70 70 70 70 70 71 71 72 71 71 71 72 72
65 69 70 71 72 72 72 72 71 72 71 69 68 70 69 68 66 67 66 65 64 65 64 65 67 70 69 70 71 70 71 71 70 70 70 70 70 70 71 70 71 71 71
63 65 69 72 71 71 73 73 73 73 72 71 70 68 65 68 68 67 65 66 66 66 66 65 67 70 70 71 72 71 71 71 71 70 70 70 69 70 71 71 71 70 69
64 66 69 70 71 72 73 73 72 70 70 69 68 68 66 66 70 69 65 66 63 66 66 66 66 69 72 69 70 71 71 71 71 71 69 70 70 70 70 71 71 71 70
69 70 72 71 71 72 73 73 71 70 71 70 68 67 67 65 70 71 70 70 69 63 62 66 66 66 71 70 70 71 71 71 70 70 70 69 69 70 70 69 69 70 71
71 72 74 74 73 73 73 73 71 71 71 70 68 68 68 66 69 70 70 68 69 68 66 63 67 68 68 67 71 71 71 71 70 70 70 70 70 69 70 70 69 68 69
69 73 75 75 74 73 73 73 73 72 71 70 70 69 69 71 70 69 70 69 69 71 65 64 64 70 70 72 70 72 72 71 70 70 70 69 69 69 69 69 69 69 68
71 74 75 75 75 74 74 74 73 71 71 69 69 69 68 66 67 69 71 70 70 69 69 66 66 69 69 70 71 72 72 71 70 70 70 70 69 69 69 69 69 68 68
70 74 75 75 75 75 75 75 74 73 71 70 68 68 68 69 69 67 68 68 66 69 70 68 67 68 69 70 70 71 72 73 72 70 70 70 69 69 68 68 68 68 68
70 75 75 75 75 76 75 75 74 73 72 71 70 68 68 69 68 68 68 69 70 69 68 69 67 66 68 67 70 68 70 72 72 70 70 70 71 70 68 68 67 67 67
72 75 75 75 76 75 75 73 73 72 72 72 69 69 69 69 69 69 66 63 65 67 68 69 68 67 66 67 67 66 67 70 71 71 71 70 70 70 69 68 68 67 67
75 75 75 74 75 74 70 70 70 68 69 69 69 70 69 71 69 66 65 65 65 66 67 67 69 68 68 67 67 67 66 67 67 71 71 69 69 67 66 65 68 68 67
73 73 73 73 73 73 70 69 66 67 67 69 68 67 66 63 62 64 66 66 67 66 67 70 69 69 68 66 67 65 67 69 68 69 70 69 69 68 67 67 67 67 68
70 71 71 72 72 72 69 68 67 67 66 66 68 68 65 64 62 61 61 64 66 67 69 69 68 68 71 70 68 69 69 69 69 70 71 68 70 69 69 67 67 67 67
61 61 61 63 64 65 64 64 64 65 68 69 69 67 63 62 62 61 59 59 64 64 66 69 70 69 68 68 67 67 67 67 64 67 69 70 71 69 71 67 67 68 67
56 55 56 57 57 57 58 62 63 56 54 57 64 67 65 61 61 60 60 62 62 63 63 64 66 67 68 68 66 66 64 64 66 66 69 68 69 69 66 67 67 67 70

GFSMA_sfc_30mbdewp_345.txt.gz
Dewpoint
66 64 65 68 68 68 68 63 68 70 67 69 69 70 69 68 70 68 66 66 66 68 69 70 70 71 71 71 71 71 71 71 71 71 71 71 71 71 71 70 69 70 68
64 63 63 67 68 70 69 67 67 68 70 69 70 71 71 69 70 68 67 67 67 67 69 67 69 69 71 71 71 71 71 71 71 71 71 71 71 71 71 71 71 70 70
67 69 63 65 68 69 66 69 69 70 70 70 70 71 70 68 69 69 67 67 66 68 67 67 68 69 70 71 70 70 71 71 70 71 71 71 72 72 72 71 71 71 71
71 70 70 68 69 70 70 69 68 68 68 68 70 70 67 67 69 71 68 68 67 67 68 68 67 67 69 70 70 70 71 71 70 70 70 71 72 72 72 72 72 72 71
70 71 69 69 67 69 69 70 70 70 69 68 66 69 68 67 69 71 71 70 68 66 68 69 69 69 68 68 68 69 68 70 70 71 71 70 71 72 72 72 72 72 72
69 70 70 68 69 66 67 67 70 68 69 68 67 67 69 69 69 70 71 69 69 68 67 68 68 69 68 69 68 69 69 65 68 71 71 71 72 72 72 73 73 73 72
70 70 70 71 70 69 69 69 69 68 68 68 69 66 64 68 67 69 71 71 69 68 68 68 69 69 67 69 70 69 70 69 68 68 71 71 72 73 73 73 73 73 72
71 70 71 69 70 68 69 70 70 68 65 67 67 63 63 64 64 65 68 66 66 68 68 68 68 69 67 68 70 70 70 69 69 69 70 72 72 73 73 72 73 73 73
71 70 70 70 70 70 66 69 70 69 66 64 67 65 59 60 61 66 65 67 68 67 67 69 68 68 70 69 71 71 71 70 69 70 70 71 72 73 73 73 73 73 73
69 70 70 72 72 70 70 69 71 70 69 67 68 67 64 64 61 58 64 63 66 66 67 68 67 68 71 71 71 70 70 71 70 70 70 71 72 73 72 73 73 73 73
68 69 69 70 71 71 71 70 70 71 70 69 68 67 67 67 68 66 63 61 63 63 63 68 68 68 69 71 72 72 71 71 71 70 70 70 71 71 72 71 72 72 72
65 69 69 70 72 72 72 71 71 72 71 70 69 69 69 67 66 67 66 65 65 65 66 67 69 68 70 70 71 71 71 71 71 71 71 71 71 70 71 71 71 72 71
62 65 71 71 71 73 73 73 72 72 73 71 71 70 68 68 67 67 67 66 65 63 64 65 69 69 70 69 70 71 71 72 71 70 71 71 70 70 70 71 71 71 71
65 67 67 68 70 72 72 73 72 72 70 70 71 71 70 67 67 69 68 66 66 65 64 67 67 66 69 69 72 72 71 71 71 71 70 70 70 70 70 70 70 71 71
68 69 70 71 73 73 73 73 71 70 71 71 68 68 70 70 69 70 70 68 65 65 64 66 65 66 67 68 71 72 71 71 71 71 70 70 70 70 69 70 70 70 71
68 71 72 74 74 74 74 74 72 71 72 70 68 68 69 69 68 71 69 68 68 68 66 66 66 65 66 69 72 71 71 71 71 70 70 70 69 70 70 70 70 69 70
71 71 73 75 76 75 74 74 74 73 72 70 70 69 68 71 69 70 70 70 69 70 67 68 68 69 70 70 68 71 71 71 72 70 70 70 70 69 69 69 70 69 69
69 70 74 76 76 75 75 74 73 71 71 70 70 69 68 68 68 68 69 69 70 71 69 67 69 70 69 70 71 71 70 69 71 70 70 70 69 69 69 69 69 69 69
69 70 71 75 75 75 75 75 74 74 72 72 70 69 68 68 67 66 68 67 67 68 71 69 67 67 67 70 69 70 72 71 72 71 70 69 69 69 68 68 68 68 68
66 69 71 75 75 75 75 75 74 74 74 72 72 71 70 70 70 70 70 71 70 69 67 68 68 67 68 68 69 70 70 69 69 73 71 70 70 69 68 68 68 68 67
70 70 73 74 75 74 74 74 73 73 73 72 73 72 71 71 71 70 70 69 68 64 62 63 66 69 69 68 67 68 67 67 67 70 70 70 71 71 70 68 69 68 67
73 73 73 73 73 74 71 70 71 71 69 69 70 70 71 71 70 69 69 68 66 65 66 65 62 66 69 69 69 66 68 67 64 67 70 71 71 70 70 69 69 68 67
71 71 71 71 72 72 70 69 68 68 67 68 69 69 69 64 65 69 67 66 66 65 64 65 67 69 70 70 68 68 67 66 63 67 70 68 70 69 70 68 65 66 67
65 64 64 66 68 70 69 68 67 68 69 68 67 67 67 68 68 64 63 63 64 66 69 67 66 68 70 71 71 70 69 69 68 69 71 67 70 69 69 69 66 66 66
60 59 58 60 61 62 65 61 62 60 58 62 66 69 69 68 67 63 64 62 60 60 63 63 70 70 70 71 69 68 67 68 64 65 69 69 68 68 69 70 70 66 65
59 57 58 59 59 58 60 59 61 58 52 49 54 58 62 69 68 62 63 64 63 61 63 64 68 68 69 70 68 67 63 60 63 63 67 67 66 65 66 68 70 70 68